Tracking 18852 objects as of 23-Nov-2017
HD Live streaming from Space Station
objects crossing your sky now

FENGYUN 1C DEB

Track FENGYUN 1C DEB now!
10-day predictions


NORAD ID: 36269
Int'l Code: 1999-025DWW
Perigee: 651.0 km
Apogee: 1,027.1 km
Inclination: 99.2 °
Period: 101.5 minutes
Semi major axis: 7210 km
RCS: 0.0019 m2 (small)
Launch date: May 10, 1999
Source: People's Republic of China (PRC)
Launch site: Taiyaun Space Center, China (TSC)

Note: This is SATELLITE DEBRIS
aabbcc
Your satellite tracking list
Your tracking list is empty




NASA's NSSDC Master Catalog

Two Line Element Set (TLE):
1 36269U 99025DWW 17321.68153026  .00000401  00000-0  15827-3 0  9997
2 36269  99.2000 114.8189 0260798  28.0762 333.4201 14.18062879459591
Source of the keplerian elements: AFSPC